Retour au catalogue

STARLINK-34733

ActifCommunicationsVLEO
NORAD 66487·PAYLOAD·🇺🇸 United States

Lancé Nov 15, 2025 depuis Cape Canaveral Space Force Station

Loading…

Prochains Passages (prochaines 24 heures)

TLE

FraisSource: CelesTrak SupGP

Époque: Sep 15, 2026, 03:49 UTC

1 66487C 25263C   26258.15951389  .00042337  00000+0  15330-2 0  2583
2 66487  43.0026   0.3417 0001741 264.9636 313.6296 15.27566213    11

Suivez STARLINK-34733 en temps réel avec AllMySat

Download on the App Store